Regional Weather Roundup
Issued by NWS

Home | Current Version | Previous Version | Text Only | Print | Product List | Glossary On
Versions: 1 2 3 4 5 6 7 8 9 10 11 12 13 14 15 16 17 18 19 20 21 22 23 24 25 26 27 28 29 30 31 32 33 34 35 36 37 38 39 40 41 42 43 44 45 46 47 48 49 50
000
ASUS43 KDMX 280608
RWRIA

WEATHER ROUNDUP FOR IOWA
NATIONAL WEATHER SERVICE DES MOINES IA
100 AM CDT SAT MAY 28 2016

NOTE: "FAIR" INDICATES FEW OR NO CLOUDS BELOW 12,000 FEET WITH NO
SIGNIFICANT WEATHER AND/OR OBSTRUCTIONS TO VISIBILITY.

* - THESE STATIONS ARE NOT NWS STATIONS...THUS NOT UNDER NWS
QUALITY CONTROL.  THEY ALSO DO NOT REPORT WEATHER SUCH
AS PRECIPITATION OR FOG.

IAZ001>003-012>014-020>022-031>034-043>046-280700-
   NORTHWEST IOWA

CITY           SKY/WX    TMP DP  RH WIND       PRES   REMARKS
CARROLL *      CLOUDY    66  64  94 SE10      29.74F
CHEROKEE *     LGT RAIN  65  65 100 CALM      29.74S
DENISON *      CLOUDY    64  63  94 S7G13     29.73S
LE MARS *      CLOUDY    66  63  88 S9        29.74S
ORANGE CITY *  LGT RAIN  66  61  82 SE5       29.74S
SHELDON *      MOCLDY    66  61  82 E7        29.72F
SIOUX CITY     LGT RAIN  62  60  93 NW6       29.73F
6HR MIN TEMP:  62; 6HR MAX TEMP:  79; 6HR PCP:  1.14;

SPENCER        CLOUDY    68  60  75 S18       29.74F
6HR MIN TEMP:  66; 6HR MAX TEMP:  74;

STORM LAKE *   MOCLDY    66  64  94 S13       29.76S FOG
$$

IAZ055>058-069>071-079>083-090>094-280700-
   SOUTHWEST IOWA

CITY           SKY/WX    TMP DP  RH WIND       PRES   REMARKS
ATLANTIC *     CLOUDY    63  59  88 SW6       29.75F
AUDUBON *        N/A     64  63  94 CALM      29.75F
CLARINDA *       N/A     61  61 100 MISG      29.75F
COUNCIL BLFS * MOCLDY    61  61 100 CALM      29.72F
CRESTON *      CLOUDY    64  63  94 E5        29.75F
HARLAN  *      CLOUDY    63  59  88 CALM      29.78F
LAMONI         CLOUDY    63  63 100 E3        29.75F
6HR MIN TEMP:  63; 6HR MAX TEMP:  72; 6HR PCP:  0.16;

RED OAK *      LGT RAIN  61  59  94 NE5       29.74F
SHENANDOAH *   HVY RAIN  63  63 100 SE5       29.76R
$$

IAZ047>049-059>061-072>074-084-280700-
   CENTRAL IOWA

CITY           SKY/WX    TMP DP  RH WIND       PRES   REMARKS
AMES           LGT RAIN  66  65  96 CALM      29.75F FOG
6HR MIN TEMP:  65; 6HR MAX TEMP:  74; 6HR PCP:  0.11;

ANKENY *       LGT RAIN  66  66 100 CALM      29.75F
BOONE *          N/A     66  64  94 SW3       29.75F
CHARITON *     LGT RAIN  64  63  94 SW5       29.76F
DES MOINES     LGT RAIN  66  62  87 S3        29.75F
6HR MIN TEMP:  66; 6HR MAX TEMP:  75; 6HR PCP:  0.12;

GRINNELL*      DRIZZLE   64  63  94 E5        29.74F
KNOXVILLE *    HVY RAIN  64  63  94 SW9       29.74S
MARSHALLTOWN   LGT RAIN  67  66  97 CALM      29.74F
6HR MIN TEMP:  67; 6HR MAX TEMP:  74; 6HR PCP:  0.03;

NEWTON *       CLOUDY    66  66 100 SW5       29.75F
PELLA *        LGT RAIN  64  63  94 SW6       29.76S
PERRY *        LGT RAIN  66  64  94 SE6       29.76F
$$

IAZ004>006-015-016-023>025-035-036-280700-
   NORTH CENTRAL IOWA

CITY           SKY/WX    TMP DP  RH WIND       PRES   REMARKS
ALGONA *       CLOUDY    66  63  88 S15       29.76F
CLARION *      CLOUDY    66  64  94 S8        29.77S
ESTHERVILLE    MOCLDY    65  61  87 SE8       29.74F
6HR MIN TEMP:  65; 6HR MAX TEMP:  75;

FORT DODGE *   CLOUDY    66  61  82 SE8       29.77F
MASON CITY     CLOUDY    63  62  97 S5        29.78R
6HR MIN TEMP:  63; 6HR MAX TEMP:  72;

FOREST CITY *  PTCLDY    61  61 100 CALM      29.77S
WEBSTER CITY * DRIZZLE   64  64 100 S9        29.75F
IOWA FALLS *   LGT RAIN  66  64  94 S3        29.77S
$$

IAZ007>011-017>019-026>030-037>042-050>054-066-280700-
   NORTHEAST IOWA

CITY           SKY/WX    TMP DP  RH WIND       PRES   REMARKS
CEDAR RAPIDS   LGT RAIN  64  64 100 S3        29.75S FOG
6HR MIN TEMP:  64; 6HR MAX TEMP:  80; 6HR PCP:  0.40;

CHARLES CITY * MOCLDY    64  64 100 S5        29.77S
CLINTON *      LGT RAIN  70  68  93 S13       29.77F
DECORAH *      MOCLDY    66  66 100 SW5       29.74F
DUBUQUE        HVY RAIN  70  67  90 SE13      29.75F FOG
6HR MIN TEMP:  70; 6HR MAX TEMP:  73;

MONTICELLO *   LGT RAIN  64  63  94 SE5       29.75S
OELWEIN *      MOCLDY    68  68 100 SW5       29.76F
WATERLOO       LGT RAIN  66  64  93 CALM      29.74F
6HR MIN TEMP:  66; 6HR MAX TEMP:  75; 6HR PCP:  0.02;

$$

IAZ064-065-067-068-078-280700-
   EAST CENTRAL IOWA

CITY           SKY/WX    TMP DP  RH WIND       PRES   REMARKS
DAVENPORT      LGT RAIN  69  67  93 S15       29.75F
6HR MIN TEMP:  69; 6HR MAX TEMP:  77; 6HR PCP:  0.08;

IOWA CITY      LGT RAIN  64  63  96 N6        29.75F
6HR MIN TEMP:  64; 6HR MAX TEMP:  78; 6HR PCP:  0.64;

MT. PLEASANT * CLOUDY    66  66 100 NE6       29.75F
MUSCATINE *    LGT RAIN  64  63  94 NW7       29.75F
QUAD CITIES    PTCLDY    71  66  84 S14G23    29.75F
6HR MIN TEMP:  71; 6HR MAX TEMP:  79; 6HR PCP:  0.10;

$$

IAZ062-063-075>077-085>089-095>099-280700-
   SOUTHEAST IOWA

CITY           SKY/WX    TMP DP  RH WIND       PRES   REMARKS
BURLINGTON     LGT RAIN  67  67 100 CALM      29.75F
6HR MIN TEMP:  67; 6HR MAX TEMP:  77; 6HR PCP:  0.39;

FAIRFIELD *      N/A    N/A N/A N/A MISG        N/A
FORT MADISON * CLOUDY    66  66 100 CALM      29.76F
KEOKUK *       HVY RAIN  68  68 100 S7G13     29.75F
OSKALOOSA *    LGT RAIN  64  62  94 CALM      29.73F
OTTUMWA        LGT RAIN  65  63  93 NE6       29.73F FOG
6HR MIN TEMP:  65; 6HR MAX TEMP:  75; 6HR PCP:  0.42;

WASHINGTON *   CLOUDY    64 N/A N/A NE5       29.75F
$$

ABBREVIATIONS USED IN REMARKS
   TC - TEMPERATURES IN CELSIUS
  WCI - WIND CHILL INDEX
   HX - HEAT INDEX
  VSB - VISIBILITY
$$





USA.gov is the U.S. government's official web portal to all federal, state and local government web resources and services.